TimeCST,TemperatureF,Dew PointF,Humidity,Sea Level PressureIn,VisibilityMPH,Wind Direction,Wind SpeedMPH,Gust SpeedMPH,PrecipitationIn,Events,Conditions,WindDirDegrees,DateUTC
12:53 AM,51.1,44.1,77,30.11,10.0,Calm,Calm,-,N/A,,Partly Cloudy,0,2012-11-21 06:53:00
1:53 AM,48.9,44.1,83,30.11,10.0,Calm,Calm,-,N/A,,Clear,0,2012-11-21 07:53:00
2:53 AM,50.0,44.1,80,30.12,10.0,NW,4.6,-,N/A,,Clear,310,2012-11-21 08:53:00
3:53 AM,50.0,44.1,80,30.14,10.0,WNW,3.5,-,N/A,,Clear,300,2012-11-21 09:53:00
4:53 AM,50.0,44.1,80,30.16,10.0,NW,4.6,-,N/A,,Clear,320,2012-11-21 10:53:00
5:53 AM,50.0,44.1,80,30.18,9.0,NNW,4.6,-,N/A,,Partly Cloudy,340,2012-11-21 11:53:00
6:53 AM,48.9,43.0,80,30.20,7.0,NW,3.5,-,N/A,,Partly Cloudy,320,2012-11-21 12:53:00
7:53 AM,52.0,45.0,77,30.21,7.0,NNW,3.5,-,N/A,,Clear,330,2012-11-21 13:53:00
8:53 AM,55.0,44.1,67,30.23,9.0,North,5.8,-,N/A,,Clear,360,2012-11-21 14:53:00
9:53 AM,59.0,42.8,55,30.24,10.0,North,6.9,-,N/A,,Clear,10,2012-11-21 15:53:00
10:53 AM,63.0,43.0,48,30.22,10.0,NNE,4.6,-,N/A,,Clear,20,2012-11-21 16:53:00
11:53 AM,64.0,43.0,46,30.20,10.0,Variable,3.5,-,N/A,,Clear,0,2012-11-21 17:53:00
12:53 PM,64.9,42.1,43,30.19,10.0,WNW,5.8,-,N/A,,Partly Cloudy,300,2012-11-21 18:53:00
1:53 PM,64.9,43.0,45,30.18,10.0,North,5.8,-,N/A,,Partly Cloudy,350,2012-11-21 19:53:00
2:53 PM,64.9,43.0,45,30.18,10.0,NNE,9.2,-,N/A,,Scattered Clouds,20,2012-11-21 20:53:00
3:53 PM,63.0,43.0,48,30.19,10.0,Variable,5.8,-,N/A,,Partly Cloudy,0,2012-11-21 21:53:00
4:53 PM,59.0,43.0,55,30.20,10.0,NNW,3.5,-,N/A,,Partly Cloudy,340,2012-11-21 22:53:00
5:53 PM,57.9,43.0,58,30.21,8.0,NNW,3.5,-,N/A,,Clear,330,2012-11-21 23:53:00
6:53 PM,53.1,42.1,66,30.21,10.0,Calm,Calm,-,N/A,,Clear,0,2012-11-22 00:53:00
7:53 PM,50.0,42.1,74,30.20,10.0,Calm,Calm,-,N/A,,Clear,0,2012-11-22 01:53:00
8:53 PM,48.0,42.1,80,30.22,9.0,Calm,Calm,-,N/A,,Clear,0,2012-11-22 02:53:00
9:53 PM,46.0,41.0,83,30.22,9.0,Calm,Calm,-,N/A,,Clear,0,2012-11-22 03:53:00
10:53 PM,45.0,41.0,86,30.21,8.0,Calm,Calm,-,N/A,,Clear,0,2012-11-22 04:53:00
11:53 PM,43.0,39.9,89,30.20,7.0,South,3.5,-,N/A,,Clear,180,2012-11-22 05:53:00